MSR20 HECA-HESH

Flight info

Callsign MSR20
Flight time N/A
Altitude 29000
Route CVO L677 MENLI N697 SISIK V603 DASOT DCT SHM
Aircraft B738/M-SDE2E3FGHIRWXY/LB1

Departure

Time N/A
Airport Cairo International Airport (HECA)

Arrival

Time 2026-05-09 00:35
Airport Sharm El Sheikh International Airport (HESH)
Time Latitude Longitude Altitude Speed Heading
2026-05-09 00:30 27.81610 34.22392 3589 ft 155 kts 45°
2026-05-09 00:30 27.82320 34.23201 3603 ft 155 kts 45°
2026-05-09 00:30 27.82886 34.23802 3603 ft 157 kts 44°
2026-05-09 00:30 27.83914 34.24880 3495 ft 159 kts 44°
2026-05-09 00:31 27.84714 34.25709 3288 ft 156 kts 44°
2026-05-09 00:31 27.85249 34.26263 3164 ft 155 kts 44°
2026-05-09 00:31 27.86243 34.27291 2904 ft 155 kts 43°
2026-05-09 00:31 27.87036 34.28111 2698 ft 152 kts 42°
2026-05-09 00:32 27.87818 34.28920 2497 ft 152 kts 41°
2026-05-09 00:32 27.88499 34.29625 2322 ft 152 kts 41°
2026-05-09 00:32 27.88990 34.30133 2192 ft 152 kts 41°
2026-05-09 00:32 27.90088 34.31270 1908 ft 150 kts 40°
2026-05-09 00:33 27.90765 34.31970 1766 ft 145 kts 40°
2026-05-09 00:33 27.91545 34.32779 1527 ft 145 kts 40°
2026-05-09 00:33 27.92294 34.33555 1345 ft 149 kts 40°
2026-05-09 00:33 27.92966 34.34250 1169 ft 149 kts 40°
2026-05-09 00:34 27.93777 34.35091 965 ft 149 kts 40°
2026-05-09 00:34 27.94534 34.35877 777 ft 149 kts 40°
2026-05-09 00:34 27.95158 34.36523 604 ft 140 kts 40°
2026-05-09 00:34 27.95929 34.37318 456 ft 143 kts 40°
2026-05-09 00:35 27.96646 34.38053 236 ft 138 kts 38°
2026-05-09 00:35 27.97267 34.38690 157 ft 123 kts 39°
2026-05-09 00:35 27.97606 34.39042 157 ft 63 kts 45°
2026-05-09 00:35 27.97795 34.39244 157 ft 25 kts 42°
2026-05-09 00:36 27.97927 34.39340 157 ft 24 kts 336°
2026-05-09 00:36 27.97996 34.39270 157 ft 0 kts 311°
2026-05-09 00:36 27.98014 34.39248 157 ft 10 kts 311°
2026-05-09 00:37 27.98092 34.39150 157 ft 17 kts 314°
2026-05-09 00:37 27.98158 34.39064 157 ft 9 kts 294°
2026-05-09 00:37 27.98147 34.39008 157 ft 7 kts 229°
2026-05-09 00:37 27.98115 34.38971 157 ft 6 kts 223°
2026-05-09 00:38 27.98094 34.38949 157 ft 6 kts 222°
2026-05-09 00:38 27.98054 34.38909 157 ft 5 kts 222°
2026-05-09 00:38 27.98026 34.38879 157 ft 5 kts 223°
2026-05-09 00:38 27.98003 34.38851 157 ft 4 kts 235°
2026-05-09 00:39 27.97976 34.38816 157 ft 7 kts 225°
2026-05-09 00:39 27.97935 34.38802 157 ft 5 kts 156°
2026-05-09 00:39 27.97921 34.38814 157 ft 0 kts 137°
2026-05-09 00:39 27.97913 34.38822 157 ft 2 kts 135°
2026-05-09 00:40 27.97905 34.38831 157 ft 0 kts 133°